[[{"header":{"parameterUnit":"m.s-1","parameterCategory":1,"la1":30.2991,"la2":30.254,"lo1":-89.0895,"lo2":-89.0444,"dy":0.0017,"dx":0.0017,"nx":28,"ny":28,"refTime":"2025-03-20T21:00:00:Z","depth":0,"parameterNumber":2,"parameterNumberName":"U-component_of_WINDS"},"data":[0,0,0,0,0,0,0,0,0,0,0,0,0,0,0,0,0,0,0,0,0,0,0,0,0,0,0,0,0,0,0,0,0,0,0,0,0,0,0,0,0,0,0,0,0,0,0,0,0,0,0,0,0,0,0,0,0,0,5.577,5.5771,0,5.5848,5.5848,5.5849,5.581,5.5808,5.5805,5.5804,5.5882,5.5886,5.589,0,0,0,0,0,0,0,0,0,0,0,0,0,5.5588,5.5592,5.577,5.5771,5.5772,5.5847,5.5849,5.585,5.581,5.5807,5.5805,5.5803,5.5881,5.5885,5.589,0,0,0,0,0,0,0,0,0,0,0,0,0,5.5667,5.5593,5.577,5.5761,5.5761,5.5847,5.5849,5.585,5.581,5.5807,5.5804,5.5801,5.5879,5.5885,5.5891,5.5989,0,0,5.5909,5.5912,0,0,0,0,0,0,0,0,5.5662,5.5673,5.5761,5.5762,5.5762,5.5816,5.5813,5.5897,5.5811,5.5792,5.5803,5.58,5.5862,5.587,5.5891,5.5993,5.5996,5.591,5.5913,5.5916,5.5918,0,0,0,0,0,0,0,5.5657,5.567,5.5801,5.5763,5.5763,5.5754,5.5762,5.5829,5.5843,5.5793,5.579,5.58,5.5862,5.5885,5.5892,5.5998,5.591,5.5915,5.5919,5.5921,5.6188,5.6191,0,0,0,0,0,0,5.5652,5.5665,5.5798,5.5803,5.5704,5.576,5.5768,5.5802,5.5842,5.5846,5.5803,5.5798,5.5876,5.5885,5.5895,5.6015,5.5916,5.5922,5.5925,5.6184,5.6189,5.6192,0,0,0,0,0,0,5.5648,5.5664,5.5795,5.5734,5.575,5.5766,5.5804,5.5805,5.5828,5.585,5.5852,5.5824,5.5874,5.5887,5.5967,5.6017,5.5924,5.593,5.618,5.6186,5.619,5.6254,0,0,0,0,0,0,5.5643,5.5663,5.57,5.5735,5.5753,5.5865,5.5807,5.5809,5.5839,5.5833,5.587,5.5873,5.5873,5.5958,5.5973,5.6024,5.5934,5.6176,5.6183,5.6189,5.6248,5.6261,5.6273,0,0,0,0,0,5.5637,5.5714,5.5702,5.5718,5.58,5.5868,5.5879,5.5877,5.5843,5.5881,5.5895,5.5872,5.6009,5.5967,5.5983,5.6036,5.6173,5.6181,5.6188,5.6242,5.6259,5.6272,0,0,0,0,0,0,5.5684,5.5718,5.5705,5.5796,5.583,5.5862,5.5909,5.5894,5.5937,5.593,5.5926,5.5935,5.6019,5.6036,5.5988,5.6135,5.6086,5.6097,5.6121,5.6137,5.6149,5.6143,5.5939,0,0,0,0,0,5.5705,5.5758,5.5785,5.5863,5.588,5.5892,5.5922,5.5918,5.5952,5.5966,5.5986,5.6021,5.6072,5.6105,5.6153,5.625,5.6259,5.6295,5.6308,5.6318,5.6328,5.6383,5.64,5.6218,5.6218,5.6218,0,0,5.5748,5.5774,5.5807,5.5873,5.5898,5.5954,5.5904,5.5964,5.6006,5.5975,5.6053,5.6069,5.6107,5.6197,5.6238,5.6214,5.638,5.6328,5.6335,5.634,5.6393,5.641,5.6425,5.6223,5.6222,5.6222,0,0,5.5857,5.5881,5.595,5.5977,5.6017,5.6025,5.6041,5.6076,5.6086,5.6164,5.6143,5.6193,5.628,5.6309,5.6335,5.6458,5.6439,5.6474,5.6538,5.6592,5.6606,5.6619,5.6664,5.6681,5.6484,5.6484,5.6484,0,5.5906,5.5989,5.5986,5.6049,5.608,5.6056,5.6126,5.6152,5.6206,5.6228,5.62,5.6311,5.6335,5.6433,5.6463,5.6484,5.6504,5.6469,5.6604,5.6617,5.6629,5.6672,5.6689,5.6488,5.6487,5.6487,5.6487,0,5.6048,5.6106,5.6157,5.6211,5.6247,5.6313,5.6321,5.6358,5.6352,5.6363,5.6444,5.6472,5.6527,5.655,5.6543,5.6648,5.6632,5.6605,5.6554,5.665,5.6691,5.6708,5.6494,5.6492,5.6491,5.649,0,0,5.6187,5.6241,5.6259,5.6284,5.6328,5.6373,5.6439,5.6493,5.6526,5.6564,5.662,5.6696,5.6672,5.6702,5.6699,5.6746,5.6845,5.6714,5.6715,5.6738,5.6963,5.6984,5.7003,5.6833,5.6836,5.6838,5.6961,0,5.6299,5.6415,5.6416,5.6523,5.6577,5.6557,5.6615,5.6649,5.6662,5.671,5.6724,5.6779,5.6742,5.676,5.6806,5.6823,5.689,5.6814,5.6886,5.6888,5.6877,5.7024,5.7046,5.716,5.6976,5.6979,5.6981,0,5.6445,5.649,5.6603,5.6641,5.6664,5.6716,5.6767,5.6814,5.6852,5.6858,5.6893,5.6884,5.6953,5.6901,5.6996,5.6945,5.6974,5.6987,5.6992,5.6999,5.694,5.7036,5.7196,5.7213,5.7006,5.7004,5.7002,0,5.6537,5.6625,5.6705,5.6727,5.6773,5.681,5.6831,5.6867,5.69,5.6945,5.6967,5.7019,5.7048,5.7089,5.7095,5.7057,5.7191,5.714,5.7199,5.7199,5.7228,5.7227,5.7396,5.7247,5.7246,5.7246,5.7246,0,5.6663,5.6733,5.6747,5.6796,5.6874,5.6876,5.6953,5.6971,5.7004,5.7057,5.7042,5.7092,5.7096,5.7148,5.7153,5.7232,5.7245,5.7253,5.7253,5.7254,5.7254,5.7274,5.7266,5.725,5.7249,5.7249,5.7248,0,5.6778,5.679,5.6876,5.6913,5.6925,5.6981,5.7014,5.7061,5.7073,5.7141,5.7156,5.7176,5.7236,5.7246,5.7317,5.732,5.7416,5.7408,5.7403,5.7402,5.7462,5.7457,5.7651,5.7677,5.751,5.7511,5.7512,0,5.6858,5.6912,5.6956,5.6991,5.7014,5.707,5.7104,5.7109,5.7145,5.7195,5.7237,5.7296,5.7344,5.7441,5.7462,5.7517,5.7511,5.7575,5.7519,5.7519,5.7513,5.751,5.7517,5.7586,5.7588,5.7589,5.759,0,5.6999,5.7003,5.7053,5.7108,5.715,5.7192,5.7232,5.7261,5.7271,5.7314,5.7376,5.7413,5.7486,5.7546,5.7601,5.7623,5.7609,5.7608,5.7625,5.7627,5.7623,5.7627,5.7434,5.7604,5.7602,5.7601,5.7601,5.76,5.71,5.7147,5.7187,5.7245,5.7276,5.7314,5.7361,5.7381,5.7433,5.7493,5.7492,5.7561,5.7601,5.7673,5.77,5.7754,5.7733,5.7757,5.7764,5.777,5.7776,5.7614,5.7764,5.7763,5.7763,5.7763,5.7763,0,5.7241,5.7266,5.7319,5.7377,5.7423,5.7406,5.7451,5.749,5.7551,5.7589,5.7637,5.771,5.7769,5.7795,5.7853,5.7892,5.7887,5.7907,5.7904,5.791,5.7791,5.7771,5.791,5.791,5.791,5.791,5.791,5.791,5.732,5.7401,5.741,5.7507,5.7531,5.7599,5.7626,5.7662,5.7693,5.7775,5.7824,5.7841,5.7875,5.7936,5.7989,5.7996,5.8018,5.8041,5.8045,5.7933,5.7918,5.7904,5.7885,5.8046,5.8046,5.816,5.8161,5.8162]},{"header":{"parameterUnit":"m.s-1","parameterCategory":1,"la1":30.2991,"la2":30.254,"lo1":-89.0895,"lo2":-89.0444,"dy":0.0017,"dx":0.0017,"nx":28,"ny":28,"refTime":"2025-03-20T21:00:00:Z","depth":0,"parameterNumber":3,"parameterNumberName":"V-component_of_WINDS"},"data":[0,0,0,0,0,0,0,0,0,0,0,0,0,0,0,0,0,0,0,0,0,0,0,0,0,0,0,0,0,0,0,0,0,0,0,0,0,0,0,0,0,0,0,0,0,0,0,0,0,0,0,0,0,0,0,0,0,0,-6.2914,-6.2915,0,-6.2989,-6.299,-6.2991,-6.2985,-6.2984,-6.2983,-6.2982,-6.3054,-6.3057,-6.306,0,0,0,0,0,0,0,0,0,0,0,0,0,-6.2762,-6.2765,-6.2914,-6.2915,-6.2916,-6.2989,-6.299,-6.2991,-6.2985,-6.2984,-6.2982,-6.2981,-6.3053,-6.3056,-6.306,0,0,0,0,0,0,0,0,0,0,0,0,0,-6.2832,-6.2766,-6.2913,-6.2922,-6.2923,-6.2989,-6.299,-6.2991,-6.2985,-6.2984,-6.2982,-6.298,-6.3052,-6.3056,-6.306,-6.3121,0,0,-6.3074,-6.3076,0,0,0,0,0,0,0,0,-6.2828,-6.2837,-6.2919,-6.2921,-6.2923,-6.2976,-6.2963,-6.3035,-6.2986,-6.2962,-6.2982,-6.298,-6.3029,-6.3035,-6.3053,-6.3125,-6.3128,-6.3074,-6.3077,-6.3079,-6.308,0,0,0,0,0,0,0,-6.2823,-6.2834,-6.2943,-6.2921,-6.2923,-6.2921,-6.2929,-6.2977,-6.3004,-6.2964,-6.2963,-6.2973,-6.303,-6.3049,-6.3055,-6.3129,-6.3074,-6.3078,-6.3081,-6.3083,-6.3257,-6.3259,0,0,0,0,0,0,-6.2817,-6.283,-6.2941,-6.2946,-6.287,-6.2925,-6.2934,-6.296,-6.3003,-6.3008,-6.2974,-6.2972,-6.3042,-6.3049,-6.3057,-6.3133,-6.3079,-6.3083,-6.3086,-6.3255,-6.3257,-6.3259,0,0,0,0,0,0,-6.2814,-6.2827,-6.2938,-6.2888,-6.2902,-6.2929,-6.2959,-6.2963,-6.2982,-6.3011,-6.3015,-6.2989,-6.3041,-6.3051,-6.3106,-6.3135,-6.3085,-6.3089,-6.3253,-6.3256,-6.3258,-6.3283,0,0,0,0,0,0,-6.2809,-6.2826,-6.2849,-6.2888,-6.2905,-6.2987,-6.2961,-6.2966,-6.299,-6.2988,-6.3026,-6.303,-6.304,-6.31,-6.3111,-6.314,-6.3093,-6.325,-6.3254,-6.3257,-6.328,-6.3286,-6.3292,0,0,0,0,0,-6.2804,-6.2852,-6.2851,-6.2864,-6.2935,-6.2988,-6.2997,-6.3009,-6.2992,-6.3017,-6.3036,-6.3029,-6.313,-6.3105,-6.3118,-6.3149,-6.3248,-6.3253,-6.3257,-6.3277,-6.3285,-6.3292,0,0,0,0,0,0,-6.2813,-6.2857,-6.2856,-6.2918,-6.295,-6.2987,-6.3018,-6.3017,-6.3052,-6.3049,-6.3061,-6.3069,-6.3126,-6.3143,-6.3114,-6.3211,-6.3187,-6.3194,-6.3198,-6.3206,-6.3212,-6.3206,-6.3096,0,0,0,0,0,-6.2823,-6.2864,-6.2899,-6.2951,-6.2967,-6.299,-6.3013,-6.302,-6.3052,-6.3065,-6.3088,-6.3119,-6.3158,-6.3183,-6.322,-6.3283,-6.3291,-6.331,-6.3316,-6.3321,-6.3327,-6.3363,-6.3372,-6.3274,-6.3274,-6.3274,0,0,-6.2842,-6.2871,-6.2896,-6.2953,-6.2979,-6.302,-6.3001,-6.3045,-6.3075,-6.3071,-6.3126,-6.3144,-6.3179,-6.3239,-6.3266,-6.3255,-6.3357,-6.3327,-6.3331,-6.3334,-6.3368,-6.3378,-6.3386,-6.3277,-6.3276,-6.3276,0,0,-6.2899,-6.2925,-6.2972,-6.2999,-6.3038,-6.3054,-6.3065,-6.3103,-6.3116,-6.3171,-6.317,-6.3206,-6.3272,-6.3298,-6.3319,-6.339,-6.3385,-6.3401,-6.3433,-6.3468,-6.3476,-6.3483,-6.3508,-6.3517,-6.3407,-6.3407,-6.3407,0,-6.2918,-6.2982,-6.2996,-6.3041,-6.3067,-6.3068,-6.3115,-6.314,-6.3188,-6.3206,-6.3193,-6.3278,-6.3301,-6.3368,-6.3386,-6.3403,-6.3416,-6.3396,-6.3474,-6.3481,-6.3488,-6.3512,-6.3522,-6.3409,-6.3409,-6.3408,-6.3408,0,-6.3003,-6.3048,-6.308,-6.3131,-6.316,-6.3206,-6.3226,-6.3254,-6.3259,-6.3276,-6.3333,-6.3362,-6.3406,-6.3422,-6.3426,-6.349,-6.3482,-6.3471,-6.3447,-6.3499,-6.3522,-6.3531,-6.3411,-6.3411,-6.341,-6.341,0,0,-6.3066,-6.3126,-6.3138,-6.3161,-6.3206,-6.324,-6.3287,-6.3332,-6.3356,-6.339,-6.3429,-6.3487,-6.3478,-6.3503,-6.351,-6.3541,-6.3596,-6.3527,-6.3528,-6.3539,-6.3669,-6.3677,-6.3688,-6.3594,-6.3596,-6.3597,-6.3666,0,-6.3128,-6.3212,-6.3228,-6.3301,-6.3342,-6.3345,-6.3386,-6.3417,-6.3435,-6.3472,-6.349,-6.3532,-6.3517,-6.3532,-6.3563,-6.3583,-6.3622,-6.3578,-6.363,-6.3632,-6.3621,-6.37,-6.3707,-6.3771,-6.3676,-6.3677,-6.3678,0,-6.3211,-6.325,-6.3328,-6.337,-6.3388,-6.3424,-6.3468,-6.3504,-6.354,-6.3551,-6.358,-6.3584,-6.3632,-6.3607,-6.3674,-6.3643,-6.3666,-6.3679,-6.3682,-6.3687,-6.3658,-6.3707,-6.3792,-6.3801,-6.3693,-6.3691,-6.369,0,-6.325,-6.3322,-6.3379,-6.3399,-6.3448,-6.3474,-6.3496,-6.3531,-6.3558,-6.3596,-6.3613,-6.3655,-6.3678,-6.3711,-6.3726,-6.3706,-6.3792,-6.3768,-6.3802,-6.3802,-6.3819,-6.3818,-6.3909,-6.3834,-6.3834,-6.3834,-6.3833,0,-6.3317,-6.3365,-6.3397,-6.3432,-6.3486,-6.3503,-6.3555,-6.3576,-6.3608,-6.3646,-6.3651,-6.3686,-6.3705,-6.3744,-6.3756,-6.381,-6.382,-6.383,-6.3832,-6.3829,-6.3828,-6.3844,-6.384,-6.3836,-6.3836,-6.3835,-6.3835,0,-6.3369,-6.3393,-6.3455,-6.3498,-6.351,-6.3548,-6.3585,-6.3618,-6.3637,-6.3685,-6.3698,-6.3726,-6.3772,-6.3792,-6.3847,-6.3855,-6.3917,-6.3916,-6.3906,-6.3906,-6.394,-6.3937,-6.4044,-6.4059,-6.3974,-6.3975,-6.3975,0,-6.3411,-6.3448,-6.3496,-6.3524,-6.3547,-6.359,-6.3618,-6.3637,-6.3666,-6.3712,-6.3741,-6.3787,-6.3825,-6.3898,-6.3923,-6.3966,-6.3966,-6.4001,-6.3972,-6.3969,-6.3967,-6.3965,-6.3969,-6.4006,-6.4007,-6.4008,-6.4008,0,-6.3482,-6.3493,-6.3534,-6.3581,-6.3615,-6.3652,-6.3688,-6.371,-6.3734,-6.3767,-6.3815,-6.3845,-6.3904,-6.395,-6.3995,-6.4016,-6.4016,-6.4017,-6.4028,-6.4025,-6.4017,-6.4022,-6.392,-6.4014,-6.4014,-6.4013,-6.4013,-6.4013,-6.353,-6.3564,-6.3604,-6.3651,-6.3681,-6.3715,-6.375,-6.3774,-6.3815,-6.3865,-6.3874,-6.3926,-6.3962,-6.4023,-6.4047,-6.4087,-6.4078,-6.4093,-6.4096,-6.41,-6.4102,-6.4011,-6.4095,-6.4095,-6.4095,-6.4095,-6.4094,0,-6.3602,-6.3629,-6.3672,-6.3724,-6.3761,-6.3761,-6.3801,-6.3832,-6.3878,-6.3913,-6.3952,-6.4008,-6.4053,-6.4083,-6.4129,-6.4155,-6.4157,-6.4167,-6.4165,-6.417,-6.4107,-6.4094,-6.4165,-6.4165,-6.4165,-6.4165,-6.4165,-6.4165,-6.3644,-6.3702,-6.3718,-6.3791,-6.3817,-6.3869,-6.3893,-6.3924,-6.3953,-6.4016,-6.4055,-6.4075,-6.4108,-6.4157,-6.4199,-6.4206,-6.4223,-6.4233,-6.424,-6.4181,-6.4174,-6.4167,-6.4155,-6.4237,-6.4237,-6.43,-6.43,-6.4301]}]]